Location: Pacheco
(37.9835°N, 122.0752°W)
Time: 09:40:59
(UTC+00:00)

Cosmos 1805 - Pass Details

Date: 13 April 2024
Orbit: 490 x 493 km, 82.5° (Epoch: 24 May)

Event Time Altitude Azimuth Distance (km) Brightness Sun altitude
Rises 12:06:29 0° 348° (NNW) 2,574 6.9 -17.2°
Reaches altitude 10° 12:08:37 10° 345° (NNW) 1,687 5.9 -16.8°
Maximum altitude 12:12:15 59° 266° (W) 571 3.0 -16.2°
Enters shadow 12:15:08 15° 188° (S) 1,385 5.0 -15.7°
